CZ-4C DEB, 40113

Orbit data source: Space-Track

CZ-4C DEB, 40113 is space debris in LEO originally from a launch on Sat, 09 Aug 2014 UTC launched from the Jiuquan Satellite Launch Center, China (JSC). Debris objects in space refer to the collection of defunct objects orbiting the Earth. Examples of debris include non-operational satellites, rocket bodies, and fragments generated from explosions, collisions, or faulty payload assembly.

Loading next visibility...
Identifier
40113, 2014-047E
Orbit
LEO
Country
Flag of CNCN / PRC
Related business
Manufacturer
CAST
Mission
Spacecraft
Bus & Motor
Unknown
Mass
Unknown
Launch date (UTC)
2014-08-09 (12 years ago)
Launch vehicle
Unknown
Launch site
Jiuquan Satellite Launch Center, China (JSC)
Object type
Payload
Rocket body
Debris
Shape & HBR
Unknown shape, 3.4 m
Radar Cross Section
Large (>1 m²)

Expand to show TLE details & history
Last TLE update: 2 days ago

TLE from 2 days ago
0 CZ-4C DEB
1 40113U 14047E   26171.03313550 -.00000017  00000-0  78639-4 0  9998
2 40113  63.3800  33.0464 0392834  15.6586 345.6191 13.44723141582342
Epoch: 2026-06-20T00:47Z
TLE epoch observation values (Epoch: 2026-06-20T00:47:42.907Z)
Latitude
-0.00002°
Longitude
112.86404°
Altitude
809.981 km
Speed
7.589 km/s
True Right ascension
02h 12m 11s
True Declination
0° 00' 00"
Sunlit
Object was in daylight at epoch
Visualization orbit readout
Latitude
Unknown
Longitude
Unknown
Altitude
Unknown
Speed
Unknown
Apparent Right ascension
Unknown
Apparent Declination
Unknown
Sunlit
N/A
Visualization observer readout
Local Sidereal Time
21:40:03
Azimuth
Unknown
Elevation
Unknown
Doppler factor
Unknown
Orbital elements
Apogee altitude
1,383.962 km
Perigee altitude
797.17 km
Semi-major axis
7,468.703 km
Eccentricity
0.03928
Inclination
63.38°
RAAN
33.0464°
Arg. of periapsis
15.6586°
True anomaly
344.44543°
Mean anomaly
345.6191°
Eccentric anomaly
345.038°
Mean motion
3.3626 °/min
Orbital period
107.06 mins
BSTAR
0.000078639
Loading maneuver chart data...
Computing Atmospheric mass density...
Loading historical data...
Loading historical data...
Loading historical data...
Loading historical data...
Loading historical data...
Loading historical data...
Loading historical data...

Documentation

Showing up to 5 results
|